This demonstration page uses our WeatherBlox Daily Observations layout. Learn more.

Left ArrowRight Arrow

Hourly Observations for July 16, 2017

Temp ( °F °C ) Dew Point ( °F °C ) Humidity (%) Winds ( mph kmh ) Pressure ( in mb ) Visibility ( mi km ) Precip ( " mm )
12:53 am 00:53 Clear 83 28.3 46 7.8 27 27 NNE 5 7 29.91 1013 10 16 0.00 0.00
1:53 am 01:53 Clear 78 25.6 48 8.9 35 35 N 6 9 29.91 1013 10 16 0.00 0.00
2:53 am 02:53 Clear 78 25.6 50 10 37 37 NNE 3 6 29.91 1013 10 16 0.00 0.00
3:53 am 03:53 Clear 74 23.3 49 9.4 41 41 N 5 7 29.90 1013 10 16 0.00 0.00
4:53 am 04:53 Clear 76 24.4 49 9.4 39 39 N 5 7 29.90 1013 10 16 0.00 0.00
5:53 am 05:53 Sunny 79 26.1 45 7.2 30 30 NW 7 11 29.90 1012 10 16 0.00 0.00
6:53 am 06:53 Sunny 81 27.2 47 8.3 30 30 NW 7 11 29.90 1013 10 16 0.00 0.00
7:53 am 07:53 Sunny 85 29.4 49 9.4 29 29 NNW 8 13 29.89 1012 10 16 0.00 0.00
8:53 am 08:53 Sunny 89 31.7 49 9.4 25 25 NNW 8 13 29.89 1012 10 16 0.00 0.00
9:53 am 09:53 Sunny 92 33.3 46 7.8 21 21 NNW 14 22 29.88 1012 10 16 0.00 0.00
10:53 am 10:53 Sunny 96 35.6 45 7.2 17 17 N 14 22 29.87 1011 10 16 0.00 0.00
11:53 am 11:53 Sunny 98 36.7 44 6.7 16 16 N 9 15 29.85 1011 10 16 0.00 0.00
12:53 pm 12:53 Sunny 101 38.3 43 6.1 14 14 NW 10 17 29.83 1010 10 16 0.00 0.00
1:53 pm 13:53 Sunny 103 39.4 35 1.7 9 9 NW 7 11 29.82 1010 10 16 0.00 0.00
2:53 pm 14:53 Sunny 105 40.6 32 0 8 8 VRB 3 6 29.80 1009 10 16 0.00 0.00
3:53 pm 15:53 Sunny 106 41.1 33 0.6 8 8 N 6 9 29.78 1008 10 16 0.00 0.00
4:53 pm 16:53 Sunny 106 41.1 31 -0.6 7 7 NNW 5 7 29.75 1007 10 16 0.00 0.00
5:53 pm 17:53 undefined 106 41.1 22 -5.6 5 5 Calm 29.73 1007 N/A 0.00 0.00
6:53 pm 18:53 Sunny 105 40.6 29 -1.7 7 7 NW 5 7 29.72 1007 10 16 0.00 0.00
7:53 pm 19:53 Sunny 101 38.3 32 0 9 9 WNW 5 7 29.72 1007 10 16 0.00 0.00
8:53 pm 20:53 Clear 94 34.4 29 -1.7 10 10 WNW 6 9 29.73 1007 10 16 0.00 0.00
9:53 pm 21:53 Clear 92 33.3 36 2.2 14 14 NW 7 11 29.74 1007 10 16 0.00 0.00
10:53 pm 22:53 Clear 89 31.7 35 1.7 15 15 NW 6 9 29.75 1008 10 16 0.00 0.00
11:53 pm 23:53 Clear 85 29.4 38 3.3 19 19 Calm 29.76 1008 10 16 0.00 0.00

Powered by AerisWeather